Retour au catalogue

STARLINK-3553

ActifCommunicationsVLEO
NORAD 51866·PAYLOAD·🇺🇸 United States

Lancé Mar 3, 2022 depuis Cape Canaveral Space Force Station

Loading…

Prochains Passages (prochaines 24 heures)

TLE

FraisSource: CelesTrak SupGP

Époque: Sep 15, 2026, 01:22 UTC

1 51866C 22022Q   26258.05743056 -.00029624  00000+0 -89886-3 0  2581
2 51866  53.1580 229.4114 0001343  92.2618  19.4046 15.33565427    18

Suivez STARLINK-3553 en temps réel avec AllMySat

Download on the App Store